Location: Emblem
(62.4273°N, 6.4710°E)
Time: 00:27:50
(UTC+01:00)

Transit 2A Rocket - Pass Details

Date: 08 October 2024
Orbit: 584 x 906 km, 66.7° (Epoch: 05 November)

Event Time Altitude Azimuth Distance (km) Brightness Sun altitude
Rises 23:52:13 0° 275° (W) 3,538 8.8 -31.2°
Reaches altitude 10° 23:54:50 10° 280° (W) 2,586 8.1 -31.3°
Maximum altitude 00:00:47 57° 359° (N) 1,024 5.7 -31.6°
Enters shadow 00:01:13 56° 18° (NNE) 1,035 5.7 -31.6°
